Location: Newark
(49.8348°N, 24.0280°E)
Time: 21:13:06
(UTC+00:00)

Transit 2A - Pass Details

Date: 24 January 2020
Orbit: 600 x 959 km, 66.7° (Epoch: 19 February)

Event Time Altitude Azimuth Distance (km) Brightness Sun altitude
Rises 18:25:57 0° 201° (SSW) 2,893 9.1 -32.2°
Enters shadow 18:26:06 - 201° (SSW) 2,836 9.1 -32.2°
Reaches altitude 10° 18:28:16 10° 197° (SSW) 1,964 - -32.6°
Maximum altitude 18:32:31 53° 121° (ESE) 743 - -33.2°
Drops below altitude 10° 18:36:45 10° 44° (NE) 1,956 - -33.9°
Sets 18:39:03 0° 40° (NE) 2,879 - -34.3°
